Weather in Aleksandrovskoye

Russia / Kirov Oblast     58°15′36″N   47°57′53″E
temp.,
°C
wind,
m/s
gust,
m/s
humid.,
%
clouds,
%
prec.,
mm/h
press.,
hPa
HPBL,
m
23 june, wed
wed2300:00+21w38735 0.0 1018139
03:00+19wnw25835 0.0 1019100
06:00+23nw36695 0.0 1019222
09:00+28nw355146 0.0 1019620
12:00+31nw34395 0.0 10181533
15:00+32wnw353445 0.0 10182585
18:00+26n25590 0.0 1017100
21:00+21wnw34792 0.1 101991
24 june, thu
thu2400:00+20ssw118324 0.1 101911
03:00+18nw118652 0.1 101911
06:00+22wsw127692 0.3 1019142
09:00+28wnw35556 0.3 1018568
12:00+30wnw354994 0.0 1017979
15:00+32wnw474086 0.0 10162108
18:00+29wnw51058100 0.1 1015526
21:00+18sse3790100 3.3 1016178
25 june, fri
fri2500:00+18sw239196 0.1 101550
03:00+19w38945 0.1 1014145
06:00+23wnw38758 0.0 1014251
09:00+28wnw345671 0.0 1014587
12:00+31nw45446 0.0 10141504
15:00+32nw46395 0.0 10132057
18:00+31nw125515 0.0 1012171
21:00+22n4107596 0.3 1012234
26 june, sat
sat2600:00+18ene229395 1.3 101326
03:00+18n11947 2.3 101415
06:00+21ene238873 0.0 1013160
09:00+26nne11615 0.0 1013725
12:00+26nne2275100 1.8 1013818
15:00+25nnw127783 3.8 1013252
18:00+27ese026892 0.6 1013112
21:00+21ne23805 0.7 101457
27 june, sun
sun2700:00+18e22845 0.0 101434
03:00+17ese11835 0.0 101411
06:00+21ese117321 0.0 1014126
09:00+27s115913 0.0 1014696
12:00+29ssw125828 0.6 10131470
15:00+29sse345898 3.2 1013941
18:00+22ene1292100 6.8 101398
21:00+20w2598100 6.8 1014129